Content
SEND FEEDBACK

Daily
Averages
Monthly
Summary
United States of America

HILLSIDE, NEW JERSEY


Home > North America > United States > New Jersey
Elevation: 40 feet     Latitude: 40 40N     Longitude: 074 14W

WEATHER
 
SELECT A DAY
Number of Records: 189,442;   Date Range: 1/1/95 - 7/7/14
 
SHARE

PRINT THIS DATA

[ ← Previous Day ]
WEATHER ALMANAC - APRIL 10, 2013
[ Next Day → ]
[ °C ]   °F
Weather ElementAverageHighLow
Temperature61.8 °F73 °F (1:51 pm)55.4 °F (6:59 pm)
Dewpoint49.7 °F57.2 °F (10:51 pm)44.1 °F (4:51 am)
Humidity66.7 %100 % (10:51 pm)42 % (1:51 pm)
Barometer29.88 in29.97 in (6:59 pm)29.82 in (2:51 am)
Wind Speed8 mph31.1 mph (6:59 pm)
Wind Gust39.1 mph (6:59 pm)
Weather ElementAverage
Visibility9.3 mi
Wind DirectionESE (127.4 °)

Weather ElementTotal
Precipitation0.32 in
Heating Degree Days0.8 (Base 65)
Growing Degree Days14.2 (Base 50)
Averaged from 27 records on April 10, 2013
WEATHER CONDITIONS BREAKOUT
WIND DIRECTION BREAKOUT
WEATHER BY HOUR - APRIL 10, 2013
[ °C ]   °F
Local TimeTemperatureDewpointHumidityBarometerVisibilityWind DirectionWind SpeedGust SpeedPrecipitationEventsConditions
1:51 AM69.1 °F51.1 °F53 %29.85 in10.0 miSSW (200°)8.1 mphScattered Clouds
2:51 AM68.0 °F52.0 °F56 %29.82 in10.0 miSSW (210°)12.7 mphMostly Cloudy
3:51 AM68.0 °F52.0 °F56 %29.85 in10.0 miNNW (340°)13.8 mph21.9 mphMostly Cloudy
4:51 AM62.1 °F44.1 °F52 %29.87 in10.0 miNNE (30°)6.9 mphMostly Cloudy
5:51 AM57.0 °F46.0 °F67 %29.89 in10.0 miNNE (20°)8.1 mphMostly Cloudy
6:51 AM55.9 °F46.0 °F69 %29.91 in10.0 miNorth (10°)4.6 mphMostly Cloudy
7:51 AM60.1 °F46.9 °F62 %29.94 in10.0 miNorth (360°)5.8 mphMostly Cloudy
8:51 AM61.0 °F46.9 °F60 %29.94 in10.0 miEast (90°)3.5 mphMostly Cloudy
9:51 AM64.9 °F46.9 °F52 %29.93 in10.0 miENE (70°)4.6 mphMostly Cloudy
10:51 AM68.0 °F46.9 °F47 %29.92 in10.0 miNNE (20°)3.5 mphMostly Cloudy
11:51 AM71.1 °F48.9 °F45 %29.92 in10.0 miEast (80°)5.8 mphMostly Cloudy
12:51 PM71.1 °F48.9 °F45 %29.91 in10.0 miEast (80°)6.9 mphScattered Clouds
1:51 PM73.0 °F48.9 °F42 %29.91 in10.0 miEast (100°)10.4 mphScattered Clouds
2:51 PM69.1 °F48.0 °F47 %29.89 in10.0 miSE (130°)11.5 mphMostly Cloudy
3:51 PM64.9 °F48.0 °F54 %29.88 in10.0 miSE (140°)12.7 mph18.4 mphMostly Cloudy
4:51 PM62.1 °F46.9 °F58 %29.87 in10.0 miSE (130°)12.7 mph16.1 mphMostly Cloudy
5:51 PM55.9 °F46.0 °F69 %29.87 in10.0 miSE (140°)8.1 mph18.4 mphMostly Cloudy
6:51 PM55.9 °F46.9 °F72 %29.85 in10.0 miENE (60°)5.8 mphOvercast
6:59 PM55.4 °F46.4 °F72 %29.97 in10.0 miNNW (330°)31.1 mph39.1 mph0.00 inRain-ThunderstormLight Thunderstorms and Rain
7:51 PM59.0 °F54.0 °F83 %29.83 in9.0 miESE (120°)12.7 mph20.7 mph0.17 inRain-ThunderstormLight Thunderstorms and Rain
8:51 PM57.9 °F54.0 °F87 %29.83 in10.0 miCalm0.05 inThunderstormThunderstorm
9:05 PM57.2 °F53.6 °F88 %29.87 in10.0 miSSW (210°)6.9 mphOvercast
9:48 PM55.4 °F51.8 °F88 %29.83 in10.0 miSE (130°)4.6 mphThunderstormThunderstorm
9:51 PM55.9 °F52.0 °F87 %29.84 in10.0 miEast (100°)4.6 mphThunderstormThunderstorm
10:51 PM57.2 °F57.2 °F100 %29.89 in3.0 miCalmRain-ThunderstormLight Thunderstorms and Rain
11:15 PM57.2 °F55.4 °F94 %29.89 in4.0 miSouth (190°)3.5 mph0.04 inRainLight Rain
11:51 PM57.0 °F55.9 °F96 %29.85 in4.0 miSSE (150°)5.8 mph0.06 inRainLight Rain
Hourly data recorded from KEWR, located miles away from Hillside, New Jersey







STORIES FROM OUR PARTNERS